Time,TemperatureF,DewpointF,PressureIn,WindDirection,WindDirectionDegrees,WindSpeedMPH,WindSpeedGustMPH,Humidity,HourlyPrecipIn,Conditions,Clouds,dailyrainin,SoftwareType,DateUTC
2013-04-07 00:03:00,55.0,19.0,-100.00,SSE,160,17.0,30.0,24,0.00,,,-99.99,,2013-04-07 04:03:00,
2013-04-07 00:14:00,56.0,19.0,-100.00,SSE,160,17.0,27.0,24,0.00,,,-99.99,,2013-04-07 04:14:00,
2013-04-07 00:23:00,56.0,20.0,-100.00,SSE,160,16.0,28.0,24,0.00,,,-99.99,,2013-04-07 04:23:00,
2013-04-07 00:32:00,56.0,20.0,-100.00,SSE,160,17.0,27.0,24,0.00,,,-99.99,,2013-04-07 04:32:00,
2013-04-07 00:43:00,56.0,21.0,-100.00,SSE,160,21.0,28.0,24,0.00,,,-99.99,,2013-04-07 04:43:00,
2013-04-07 00:52:00,57.0,21.0,-100.00,SSE,165,21.0,31.0,25,0.00,,,-99.99,,2013-04-07 04:52:00,
2013-04-07 01:02:00,57.0,22.0,-100.00,South,170,16.0,29.0,25,0.00,,,-99.99,,2013-04-07 05:02:00,
2013-04-07 01:12:00,57.0,22.0,-100.00,SSE,165,17.0,35.0,26,0.00,,,-99.99,,2013-04-07 05:12:00,
2013-04-07 01:23:00,57.0,23.0,-100.00,SSE,160,16.0,27.0,26,0.00,,,-99.99,,2013-04-07 05:23:00,
2013-04-07 01:33:00,57.0,24.0,-100.00,South,170,24.0,32.0,27,0.00,,,-99.99,,2013-04-07 05:33:00,
2013-04-07 01:43:00,58.0,25.0,-100.00,SSE,165,24.0,33.0,28,0.00,,,-99.99,,2013-04-07 05:43:00,
2013-04-07 01:52:00,57.0,26.0,-100.00,South,175,21.0,34.0,29,0.00,,,-99.99,,2013-04-07 05:52:00,
2013-04-07 02:02:00,57.0,27.0,-100.00,South,170,19.0,32.0,30,0.00,,,-99.99,,2013-04-07 06:02:00,
2013-04-07 02:12:00,57.0,28.0,-100.00,South,170,24.0,32.0,32,0.00,,,-99.99,,2013-04-07 06:12:00,
2013-04-07 02:22:00,57.0,28.0,-100.00,SSE,165,19.0,29.0,32,0.00,,,-99.99,,2013-04-07 06:22:00,
2013-04-07 02:32:00,57.0,27.0,-100.00,SSE,160,19.0,30.0,32,0.00,,,-99.99,,2013-04-07 06:32:00,
2013-04-07 02:42:00,57.0,28.0,-100.00,South,170,19.0,28.0,32,0.00,,,-99.99,,2013-04-07 06:42:00,
2013-04-07 02:52:00,57.0,28.0,-100.00,South,175,16.0,28.0,33,0.00,,,-99.99,,2013-04-07 06:52:00,
2013-04-07 03:02:00,57.0,29.0,-100.00,South,170,21.0,29.0,33,0.00,,,-99.99,,2013-04-07 07:02:00,
2013-04-07 03:12:00,57.0,29.0,-100.00,SSE,165,18.0,27.0,34,0.00,,,-99.99,,2013-04-07 07:12:00,
2013-04-07 03:22:00,57.0,29.0,-100.00,SSE,160,19.0,27.0,35,0.00,,,-99.99,,2013-04-07 07:22:00,
2013-04-07 03:33:00,57.0,30.0,-100.00,South,170,17.0,29.0,35,0.00,,,-99.99,,2013-04-07 07:33:00,
2013-04-07 03:42:00,57.0,31.0,-100.00,South,170,17.0,25.0,36,0.00,,,-99.99,,2013-04-07 07:42:00,
2013-04-07 03:52:00,57.0,31.0,-100.00,South,170,17.0,27.0,37,0.00,,,-99.99,,2013-04-07 07:52:00,
2013-04-07 04:02:00,57.0,31.0,-100.00,South,170,17.0,27.0,37,0.00,,,-99.99,,2013-04-07 08:02:00,
2013-04-07 04:12:00,57.0,32.0,-100.00,South,175,16.0,22.0,38,0.00,,,-99.99,,2013-04-07 08:12:00,
2013-04-07 04:22:00,58.0,33.0,-100.00,South,185,16.0,24.0,39,0.00,,,-99.99,,2013-04-07 08:22:00,
2013-04-07 04:33:00,59.0,35.0,-100.00,SSW,200,18.0,23.0,40,0.00,,,-99.99,,2013-04-07 08:33:00,
2013-04-07 04:42:00,60.0,35.0,-100.00,SSW,195,21.0,29.0,40,0.00,,,-99.99,,2013-04-07 08:42:00,
2013-04-07 04:52:00,60.0,36.0,-100.00,SSW,200,21.0,32.0,40,0.00,,,-99.99,,2013-04-07 08:52:00,
2013-04-07 05:02:00,60.0,37.0,-100.00,SSW,195,23.0,30.0,42,4.53,,,-99.99,,2013-04-07 09:02:00,
2013-04-07 05:12:00,60.0,38.0,-100.00,SSW,205,25.0,35.0,44,0.00,,,-99.99,,2013-04-07 09:12:00,
2013-04-07 05:22:00,60.0,38.0,-100.00,SSW,195,17.0,32.0,44,0.00,,,-99.99,,2013-04-07 09:22:00,
2013-04-07 05:33:00,60.0,38.0,-100.00,SSW,200,29.0,37.0,44,0.00,,,-99.99,,2013-04-07 09:33:00,
2013-04-07 05:43:00,60.0,38.0,-100.00,SSW,200,21.0,31.0,44,0.00,,,-99.99,,2013-04-07 09:43:00,
2013-04-07 05:53:00,59.0,38.0,-100.00,SSW,195,21.0,28.0,45,0.00,,,-99.99,,2013-04-07 09:53:00,
2013-04-07 06:04:00,59.0,38.0,-100.00,South,185,16.0,31.0,46,0.00,,,-99.99,,2013-04-07 10:04:00,
2013-04-07 06:13:00,59.0,38.0,-100.00,South,190,17.0,28.0,46,0.00,,,-99.99,,2013-04-07 10:13:00,
2013-04-07 06:23:00,58.0,39.0,-100.00,SSW,195,22.0,30.0,47,0.00,,,-99.99,,2013-04-07 10:23:00,
2013-04-07 06:34:00,58.0,39.0,-100.00,SSW,195,21.0,31.0,48,0.00,,,-99.99,,2013-04-07 10:34:00,
2013-04-07 06:43:00,58.0,39.0,-100.00,South,190,16.0,32.0,49,0.00,,,-99.99,,2013-04-07 10:43:00,
2013-04-07 06:53:00,58.0,39.0,-100.00,SSW,195,20.0,30.0,50,0.00,,,-99.99,,2013-04-07 10:53:00,
2013-04-07 07:03:00,57.0,39.0,-100.00,SSW,200,18.0,30.0,51,0.00,,,-99.99,,2013-04-07 11:03:00,
2013-04-07 07:12:00,57.0,39.0,-100.00,SSW,200,18.0,30.0,51,0.00,,,-99.99,,2013-04-07 11:12:00,
2013-04-07 07:22:00,57.0,39.0,-100.00,SSW,195,16.0,27.0,51,0.00,,,-99.99,,2013-04-07 11:22:00,
2013-04-07 07:33:00,58.0,39.0,-100.00,SSW,195,22.0,30.0,50,0.00,,,-99.99,,2013-04-07 11:33:00,
2013-04-07 07:42:00,57.0,39.0,-100.00,SSW,200,21.0,28.0,50,0.00,,,-99.99,,2013-04-07 11:42:00,
2013-04-07 07:52:00,58.0,40.0,-100.00,SSW,205,23.0,30.0,50,0.00,,,-99.99,,2013-04-07 11:52:00,
2013-04-07 08:12:00,59.0,41.0,-100.00,SW,215,23.0,34.0,50,0.00,,,-99.99,,2013-04-07 12:12:00,
2013-04-07 08:23:00,59.0,42.0,-100.00,SW,215,27.0,35.0,51,0.00,,,-99.99,,2013-04-07 12:23:00,
2013-04-07 08:34:00,59.0,42.0,-100.00,SW,220,27.0,35.0,52,0.00,,,-99.99,,2013-04-07 12:34:00,
2013-04-07 08:43:00,59.0,42.0,-100.00,SW,225,29.0,37.0,54,0.00,,,-99.99,,2013-04-07 12:43:00,
2013-04-07 08:53:00,58.0,43.0,-100.00,SW,235,26.0,37.0,56,0.00,,,-99.99,,2013-04-07 12:53:00,
2013-04-07 09:04:00,58.0,43.0,-100.00,SW,235,24.0,40.0,58,0.00,,,-99.99,,2013-04-07 13:04:00,
2013-04-07 09:13:00,57.0,44.0,-100.00,WSW,245,27.0,38.0,61,0.00,,,-99.99,,2013-04-07 13:13:00,
2013-04-07 09:22:00,56.0,44.0,-100.00,WSW,245,30.0,38.0,62,0.00,,,-99.99,,2013-04-07 13:22:00,
2013-04-07 09:33:00,56.0,44.0,-100.00,SW,230,25.0,39.0,63,0.00,,,-99.99,,2013-04-07 13:33:00,
2013-04-07 09:42:00,56.0,44.0,-100.00,WSW,245,30.0,36.0,63,0.00,,,-99.99,,2013-04-07 13:42:00,
2013-04-07 09:52:00,56.0,44.0,-100.00,WSW,250,21.0,38.0,64,0.00,,,-99.99,,2013-04-07 13:52:00,
2013-04-07 10:02:00,56.0,44.0,-100.00,SW,235,24.0,34.0,65,0.00,,,-99.99,,2013-04-07 14:02:00,
2013-04-07 10:12:00,56.0,44.0,-100.00,SW,235,26.0,34.0,65,0.00,,,-99.99,,2013-04-07 14:12:00,
2013-04-07 10:23:00,56.0,44.0,-100.00,WSW,240,19.0,34.0,65,0.00,,,-99.99,,2013-04-07 14:23:00,
2013-04-07 10:33:00,56.0,44.0,-100.00,WSW,255,17.0,26.0,65,0.00,,,-99.99,,2013-04-07 14:33:00,
2013-04-07 10:43:00,56.0,44.0,-100.00,WSW,255,21.0,31.0,63,0.00,,,-99.99,,2013-04-07 14:43:00,
2013-04-07 10:53:00,55.0,43.0,-100.00,WSW,245,25.0,35.0,64,0.00,,,-99.99,,2013-04-07 14:53:00,
2013-04-07 11:03:00,55.0,43.0,-100.00,SW,230,25.0,34.0,64,0.00,,,-99.99,,2013-04-07 15:03:00,
2013-04-07 11:13:00,55.0,43.0,-100.00,WSW,240,25.0,37.0,64,0.00,,,-99.99,,2013-04-07 15:13:00,
2013-04-07 11:22:00,55.0,43.0,-100.00,WSW,245,22.0,35.0,64,0.00,,,-99.99,,2013-04-07 15:22:00,
2013-04-07 11:35:00,55.0,42.0,-100.00,SW,235,21.0,32.0,63,0.00,,,-99.99,,2013-04-07 15:35:00,
2013-04-07 11:45:00,55.0,42.0,-100.00,WSW,240,17.0,30.0,61,0.00,,,-99.99,,2013-04-07 15:45:00,
2013-04-07 11:53:00,56.0,42.0,-100.00,SW,230,14.0,27.0,60,0.00,,,-99.99,,2013-04-07 15:53:00,
2013-04-07 12:04:00,56.0,42.0,-100.00,SW,225,18.0,27.0,59,0.00,,,-99.99,,2013-04-07 16:04:00,
2013-04-07 12:13:00,55.0,42.0,-100.00,WSW,245,21.0,33.0,60,0.00,,,-99.99,,2013-04-07 16:13:00,
2013-04-07 12:24:00,56.0,42.0,-100.00,WSW,240,17.0,27.0,58,0.00,,,-99.99,,2013-04-07 16:24:00,
2013-04-07 12:33:00,56.0,42.0,-100.00,West,270,21.0,28.0,60,0.00,,,-99.99,,2013-04-07 16:33:00,
2013-04-07 12:43:00,55.0,43.0,-100.00,West,260,19.0,27.0,62,0.00,,,-99.99,,2013-04-07 16:43:00,
2013-04-07 12:53:00,55.0,42.0,-100.00,WSW,240,23.0,30.0,62,0.00,,,-99.99,,2013-04-07 16:53:00,
2013-04-07 13:05:00,55.0,42.0,-100.00,WSW,255,22.0,32.0,60,0.00,,,-99.99,,2013-04-07 17:05:00,
2013-04-07 13:13:00,55.0,41.0,-100.00,WSW,240,24.0,32.0,58,0.00,,,-99.99,,2013-04-07 17:13:00,
2013-04-07 13:23:00,55.0,40.0,-100.00,WSW,245,24.0,33.0,57,0.00,,,-99.99,,2013-04-07 17:23:00,
2013-04-07 13:33:00,55.0,41.0,-100.00,SW,225,22.0,29.0,58,0.00,,,-99.99,,2013-04-07 17:33:00,
2013-04-07 13:43:00,56.0,41.0,-100.00,West,270,10.0,24.0,57,0.00,,,-99.99,,2013-04-07 17:43:00,
2013-04-07 13:53:00,56.0,41.0,-100.00,West,270,17.0,24.0,57,0.00,,,-99.99,,2013-04-07 17:53:00,
2013-04-07 14:03:00,56.0,41.0,-100.00,WSW,245,17.0,28.0,58,0.00,,,-99.99,,2013-04-07 18:03:00,
2013-04-07 14:13:00,55.0,40.0,-100.00,West,265,21.0,26.0,57,0.00,,,-99.99,,2013-04-07 18:13:00,
2013-04-07 14:23:00,56.0,41.0,-100.00,WSW,245,14.0,24.0,55,0.00,,,-99.99,,2013-04-07 18:23:00,
2013-04-07 14:33:00,56.0,40.0,-100.00,WSW,245,19.0,25.0,55,0.00,,,-99.99,,2013-04-07 18:33:00,
2013-04-07 14:43:00,56.0,40.0,-100.00,WSW,245,17.0,28.0,54,0.00,,,-99.99,,2013-04-07 18:43:00,
2013-04-07 14:52:00,56.0,40.0,-100.00,WSW,255,15.0,29.0,53,0.00,,,-99.99,,2013-04-07 18:52:00,
2013-04-07 15:03:00,56.0,39.0,-100.00,SW,230,22.0,30.0,53,0.00,,,-99.99,,2013-04-07 19:03:00,
2013-04-07 15:12:00,57.0,39.0,-100.00,WSW,250,16.0,29.0,51,0.00,,,-99.99,,2013-04-07 19:12:00,
2013-04-07 15:22:00,58.0,38.0,-100.00,WSW,250,13.0,27.0,48,0.00,,,-99.99,,2013-04-07 19:22:00,
2013-04-07 15:33:00,58.0,38.0,-100.00,West,265,17.0,24.0,48,0.00,,,-99.99,,2013-04-07 19:33:00,
2013-04-07 15:42:00,58.0,38.0,-100.00,West,275,12.0,22.0,47,0.00,,,-99.99,,2013-04-07 19:42:00,
2013-04-07 15:53:00,58.0,37.0,-100.00,West,265,16.0,27.0,46,0.00,,,-99.99,,2013-04-07 19:53:00,
2013-04-07 16:03:00,58.0,37.0,-100.00,WSW,255,22.0,30.0,45,0.00,,,-99.99,,2013-04-07 20:03:00,
2013-04-07 16:13:00,58.0,37.0,-100.00,West,265,19.0,29.0,44,0.00,,,-99.99,,2013-04-07 20:13:00,
2013-04-07 16:22:00,58.0,36.0,-100.00,West,270,19.0,26.0,43,0.00,,,-99.99,,2013-04-07 20:22:00,
2013-04-07 16:33:00,58.0,36.0,-100.00,WSW,250,18.0,27.0,44,0.00,,,-99.99,,2013-04-07 20:33:00,
2013-04-07 16:43:00,59.0,36.0,-100.00,West,260,18.0,30.0,43,0.00,,,-99.99,,2013-04-07 20:43:00,
2013-04-07 16:52:00,58.0,36.0,-100.00,WSW,245,24.0,29.0,43,0.00,,,-99.99,,2013-04-07 20:52:00,
2013-04-07 17:04:00,59.0,36.0,-100.00,WSW,250,17.0,24.0,42,0.00,,,-99.99,,2013-04-07 21:04:00,
2013-04-07 17:13:00,59.0,36.0,-100.00,WSW,250,17.0,26.0,41,0.00,,,-99.99,,2013-04-07 21:13:00,
2013-04-07 17:22:00,59.0,36.0,-100.00,WSW,245,17.0,25.0,42,0.00,,,-99.99,,2013-04-07 21:22:00,
2013-04-07 17:34:00,59.0,36.0,-100.00,West,260,17.0,24.0,41,0.00,,,-99.99,,2013-04-07 21:34:00,
2013-04-07 17:43:00,60.0,36.0,-100.00,WNW,285,12.0,21.0,41,0.00,,,-99.99,,2013-04-07 21:43:00,
2013-04-07 17:53:00,60.0,35.0,-100.00,WSW,255,12.0,19.0,40,0.00,,,-99.99,,2013-04-07 21:53:00,
2013-04-07 18:05:00,59.0,35.0,-100.00,WNW,295,13.0,20.0,40,0.00,,,-99.99,,2013-04-07 22:05:00,
2013-04-07 18:14:00,59.0,35.0,-100.00,West,275,16.0,21.0,40,0.00,,,-99.99,,2013-04-07 22:14:00,
2013-04-07 18:23:00,59.0,35.0,-100.00,West,280,11.0,20.0,40,0.00,,,-99.99,,2013-04-07 22:23:00,
2013-04-07 18:34:00,59.0,35.0,-100.00,WSW,255,14.0,20.0,40,0.00,,,-99.99,,2013-04-07 22:34:00,
2013-04-07 18:43:00,59.0,35.0,-100.00,West,275,10.0,16.0,40,0.00,,,-99.99,,2013-04-07 22:43:00,
2013-04-07 18:53:00,58.0,35.0,-100.00,West,275,12.0,21.0,41,0.00,,,-99.99,,2013-04-07 22:53:00,
2013-04-07 19:04:00,58.0,34.0,-100.00,WNW,290,12.0,17.0,40,0.00,,,-99.99,,2013-04-07 23:04:00,
2013-04-07 19:13:00,58.0,34.0,-100.00,WNW,295,9.0,15.0,40,0.00,,,-99.99,,2013-04-07 23:13:00,
2013-04-07 19:22:00,58.0,34.0,-100.00,WNW,295,7.0,17.0,40,0.00,,,-99.99,,2013-04-07 23:22:00,
2013-04-07 19:33:00,58.0,34.0,-100.00,WNW,290,11.0,15.0,40,0.00,,,-99.99,,2013-04-07 23:33:00,
2013-04-07 19:43:00,58.0,34.0,-100.00,WNW,300,11.0,16.0,40,0.00,,,-99.99,,2013-04-07 23:43:00,
2013-04-07 19:52:00,57.0,33.0,-100.00,West,280,11.0,16.0,40,0.00,,,-99.99,,2013-04-07 23:52:00,
2013-04-07 20:03:00,57.0,33.0,-100.00,WNW,285,7.0,12.0,40,0.00,,,-99.99,,2013-04-08 00:03:00,
2013-04-07 20:12:00,57.0,33.0,-100.00,WNW,300,9.0,12.0,41,0.00,,,-99.99,,2013-04-08 00:12:00,
2013-04-07 20:22:00,56.0,33.0,-100.00,WNW,300,9.0,13.0,41,0.00,,,-99.99,,2013-04-08 00:22:00,
2013-04-07 20:33:00,56.0,33.0,-100.00,NW,305,7.0,11.0,41,0.00,,,-99.99,,2013-04-08 00:33:00,
2013-04-07 20:42:00,56.0,33.0,-100.00,WNW,295,6.0,11.0,41,0.00,,,-99.99,,2013-04-08 00:42:00,
2013-04-07 20:52:00,56.0,33.0,-100.00,NW,310,7.0,10.0,42,0.00,,,-99.99,,2013-04-08 00:52:00,
2013-04-07 21:03:00,56.0,33.0,-100.00,NW,310,6.0,11.0,42,0.00,,,-99.99,,2013-04-08 01:03:00,
2013-04-07 21:12:00,55.0,33.0,-100.00,NW,310,9.0,11.0,42,0.00,,,-99.99,,2013-04-08 01:12:00,
2013-04-07 21:22:00,55.0,33.0,-100.00,NW,315,8.0,11.0,42,0.00,,,-99.99,,2013-04-08 01:22:00,
2013-04-07 21:34:00,55.0,33.0,-100.00,NW,310,6.0,11.0,43,0.00,,,-99.99,,2013-04-08 01:34:00,
2013-04-07 21:43:00,54.0,33.0,-100.00,NNW,340,4.0,8.0,44,0.00,,,-99.99,,2013-04-08 01:43:00,
2013-04-07 21:53:00,54.0,33.0,-100.00,North,350,6.0,8.0,44,0.00,,,-99.99,,2013-04-08 01:53:00,
2013-04-07 22:03:00,53.0,33.0,-100.00,North,0,6.0,9.0,45,0.00,,,-99.99,,2013-04-08 02:03:00,
2013-04-07 22:12:00,53.0,33.0,-100.00,North,355,6.0,8.0,46,0.00,,,-99.99,,2013-04-08 02:12:00,
2013-04-07 22:22:00,52.0,33.0,-100.00,North,10,7.0,10.0,47,0.00,,,-99.99,,2013-04-08 02:22:00,
2013-04-07 22:33:00,51.0,32.0,-100.00,North,0,7.0,10.0,47,0.00,,,-99.99,,2013-04-08 02:33:00,
2013-04-07 22:47:00,51.0,32.0,-100.00,North,5,7.0,11.0,48,0.00,,,-99.99,,2013-04-08 02:47:00,
2013-04-07 22:53:00,51.0,32.0,-100.00,NNE,15,8.0,10.0,48,0.00,,,-99.99,,2013-04-08 02:53:00,
2013-04-07 23:08:00,50.0,32.0,-100.00,North,5,7.0,11.0,48,0.00,,,-99.99,,2013-04-08 03:08:00,
2013-04-07 23:15:00,50.0,32.0,-100.00,North,10,6.0,9.0,49,0.00,,,-99.99,,2013-04-08 03:15:00,
2013-04-07 23:25:00,50.0,33.0,-100.00,NNE,25,6.0,8.0,51,0.00,,,-99.99,,2013-04-08 03:25:00,
2013-04-07 23:35:00,50.0,34.0,-100.00,NE,40,7.0,11.0,53,0.00,,,-99.99,,2013-04-08 03:35:00,
2013-04-07 23:47:00,50.0,34.0,-100.00,NE,45,10.0,12.0,55,0.00,,,-99.99,,2013-04-08 03:47:00,
2013-04-07 23:53:00,47.0,35.0,-100.00,ENE,70,12.0,21.0,62,0.00,,,-99.99,,2013-04-08 03:53:00,